[sarex] 2 Line ISS Keps 1-19

Dave Larsen PhD doc at volcano.net
Mon Jan 19 18:49:35 PST 2009


ISS
1 25544U 98067A   09019.66443287  .00011179  00000-0  93909-4 0  1040
2 25544 051.6435 347.2209 0007790 283.3836 079.8947 15.70448043582598


More information about the SAREX mailing list